Location: Ferintosh
(52.7647°N, 112.9692°W)
Time: 22:49:07
(UTC+00:00)

Vanguard 1 Rocket - Pass Details

Date: 23 May 2024
Orbit: 649 x 4221 km, 34.3° (Epoch: 13 June)

Event Time Altitude Azimuth Distance (km) Brightness Sun altitude
Rises 14:56:10 0° 207° (SSW) 8,395 12.1 29.5°
Reaches altitude 10° 15:04:13 10° 196° (SSW) 7,095 11.9 30.7°
Maximum altitude 15:19:19 23° 154° (SSE) 4,995 11.8 33.0°
Drops below altitude 10° 15:29:58 10° 110° (ESE) 4,929 12.5 34.6°
Sets 15:34:05 0° 96° (E) 5,426 12.4 35.2°
